Briefing drone pour Chabeuil

Rechercher une autre localisation

Conditions de vol :


Nous sommes le : Mardi 13 avril 2021
Il est 15:49 UTC (17:49 LT)

Lever de soleil : 04:31 UTC (06:31 LT)
Coucher de soleil : 18:49 UTC (20:49 LT)

Météo

L'essentiel des conditions de vol

VIGILANCE MÉTÉO FRANCE - Drôme (26)
Pas de vigilances particulieres
METAR de LFLU
LFLU 131530Z AUTO 35022KT 9999 FEW068 13/M00 Q1023

Date d'émission: 13/04/2021
Heure d'émission: 15:30 UTC
Vent: 350° pour 22 KT (41 km/h)
Visibilité horizontale: > 10 km
Plafond :
- Peu de nuages à 6800ft (2073m)
Température: 13 °C
Point de rosée: 0 °C
Humidité: 41%
Pression (QNH): 1023 hPa
Prévision 24h pour Valence (6 km)
Vent : 4° pour 6 KT (22 km/h)
Temperature Maxi: 11 °C
Temperature Min: 11 °C
Humidité : 46%
Condition : Nuageux



Warning: count(): Parameter must be an array or an object that implements Countable in /homepages/6/d509196549/htdocs/droneoxygene/briefing.php on line 743
WEBCAM POUR CHABEUIL

Réglementation

Voler en sécurité

CARTES AERONAUTIQUE 1/500.000
CARTES VAC (LFLU)
SUP AIP




Chargement des AIP...
NOTAM (CHABEUIL + Terrain à proximité / FIR )




Chargement des NOTAMS...
CONTACT PREFECTURE 26
Drôme (26) : ddt-sdsr@drome.gouv.fr


Avertissement : Les données mises à disposition sont indicatives. Oxygène Drone ne pourra être tenu responsable de dégâts causés aux biens et aux personnes.